Livermore, CA

5:25 AM PST on November 22, 2017 (GMT -0800)
Livermore Municipal

Weather History for KLVK - January, 2013

Change the Weather History Date:

Sunday, January 20, 2013

  Actual Average Record
Temperature  
Mean Temperature 46 °F 47 °F  
Max Temperature 61 °F 56 °F 72 °F (2014)
Min Temperature 30 °F 38 °F 21 °F (1963)
Degree Days  
Heating Degree Days 19 18  
Month to date heating degree days 447 375  
Since 1 July heating degree days 1318 1406  
Cooling Degree Days 0 0  
Month to date cooling degree days 0 0  
Year to date cooling degree days 0 0  
Moisture  
Dew Point 31 °F    
Average Humidity 56    
Maximum Humidity 85    
Minimum Humidity 27    
Precipitation  
Precipitation 0.00 in 0.07 in 1.02 in (2010)
Month to date precipitation 0.33 2.21  
Year to date precipitation 0.33 2.21  
Since 1 July precipitation 8.62  
Sea Level Pressure  
Sea Level Pressure 30.20 in    
Wind  
Wind Speed 3 mph (ENE)    
Max Wind Speed 16 mph    
Max Gust Speed 20 mph    
Visibility 10 miles    
Events      
T = Trace of Precipitation, MM = Missing Value Source: NWS Daily Summary

Daily Weather History Graph

Daily Weather History Graph

Search for Another Location

Airport or City:

Trip Planner

Search our weather history database for the weather conditions in past years. The results will help you decide how hot, cold, wet, or windy it might be!

Date:

Astronomy

Jan. 20, 2013 Rise Set
Actual Time 7:19 AM PST 5:18 PM PST
Civil Twilight 6:50 AM PST 5:46 PM PST
Nautical Twilight 6:18 AM PST 6:18 PM PST
Astronomical Twilight 5:47 AM PST 6:49 PM PST
Moon 12:22 PM PST (1/20) 1:56 AM PST (1/20)
Length of Visible Light 10h 55m
Length of Day
9h 59m
Waxing Gibbous, 67% of the Moon is Illuminated
Jan 20
Waxing Gibbous
Jan 26
Full
Feb 3
Last Quarter
Feb 9
New
Feb 17
First Quarter

Hourly Weather History & Observations

Time (PST) Temp. Windchill Dew Point Humidity Pressure Visibility Wind Dir Wind Speed Gust Speed Precip Events Conditions
12:53 AM 35.1 °F - 30.0 °F 82% 30.23 in 10.0 mi Calm Calm - N/A   Clear
1:53 AM 35.1 °F - 28.9 °F 78% 30.24 in 10.0 mi Calm Calm - N/A   Clear
2:53 AM 33.1 °F - 28.0 °F 82% 30.24 in 10.0 mi Calm Calm - N/A   Clear
3:53 AM 32.0 °F - 28.0 °F 85% 30.24 in 10.0 mi Calm Calm - N/A   Clear
4:53 AM 30.0 °F - 27.0 °F 88% 30.23 in 10.0 mi Calm Calm - N/A   Clear
5:53 AM 30.9 °F - 27.0 °F 85% 30.23 in 10.0 mi Calm Calm - N/A   Clear
6:53 AM 30.9 °F - 27.0 °F 85% 30.24 in 10.0 mi Calm Calm - N/A   Clear
7:53 AM 30.0 °F - 27.0 °F 88% 30.24 in 9.0 mi Calm Calm - N/A   Clear
8:53 AM 37.0 °F - 32.0 °F 82% 30.25 in 9.0 mi Calm Calm - N/A   Clear
10:53 AM 51.1 °F - 37.0 °F 59% 30.24 in 10.0 mi Calm Calm - N/A   Clear
11:53 AM 57.9 °F - 33.1 °F 39% 30.20 in 10.0 mi Calm Calm - N/A   Clear
12:53 PM 61.0 °F - 27.0 °F 27% 30.17 in 10.0 mi ENE 12.7 mph - N/A   Clear
1:53 PM 61.0 °F - 30.0 °F 31% 30.15 in 10.0 mi ENE 11.5 mph - N/A   Clear
2:53 PM 60.1 °F - 34.0 °F 38% 30.14 in 10.0 mi ENE 12.7 mph - N/A   Clear
3:53 PM 59.0 °F - 36.0 °F 42% 30.15 in 10.0 mi ENE 9.2 mph - N/A   Clear
4:53 PM 55.0 °F - 36.0 °F 49% 30.15 in 10.0 mi East 8.1 mph - N/A   Clear
5:53 PM 53.1 °F - 34.0 °F 48% 30.16 in 10.0 mi NE 4.6 mph - N/A   Clear
6:53 PM 48.0 °F - 34.0 °F 58% 30.18 in 10.0 mi Calm Calm - N/A   Clear
7:53 PM 43.0 °F 41.3 °F 32.0 °F 65% 30.19 in 10.0 mi East 3.5 mph - N/A   Clear
8:53 PM 41.0 °F - 32.0 °F 70% 30.19 in 10.0 mi Calm Calm - N/A   Clear
9:53 PM 39.9 °F - 30.9 °F 70% 30.19 in 10.0 mi Calm Calm - N/A   Clear
10:53 PM 37.9 °F - 30.0 °F 73% 30.20 in 10.0 mi Calm Calm - N/A   Clear
11:53 PM 36.0 °F - 30.9 °F 82% 30.19 in 8.0 mi Calm Calm - N/A   Clear